Location: Eldred Sherwood Park Lake Dam
(42.9416°N, 93.5655°W)
Time: 12:46:36
(UTC+00:00)

Explorer 11/Cluster Stage 4 - Pass Details

Date: 16 December 2025
Orbit: 463 x 1180 km, 28.8° (Epoch: 13 January)

Event Time Altitude Azimuth Distance (km) Brightness Sun altitude
Rises 01:44:06 0° 245° (WSW) 4,015 11.1 -32.6°
Reaches altitude 10° 01:47:35 10° 233° (SW) 2,995 10.1 -33.2°
Enters shadow 01:52:52 24° 188° (S) 1,998 8.6 -34.2°
